Flag for Norway Weather past 2 weeks in Volda, Norway

Now
59 °F

Passing clouds.


Feels Like: 58 °F
Forecast: 45 / 58 °F
Wind: 8 mph from Southwest

Location: Orsta-Volda / Hovden

Current Time: May 5, 2015 at 1:19:23 PM

Latest Report: May 5, 2015 at 12:50 PM


Visibility: N/A

Pressure: 29.56 "Hg

Humidity: 45%

Dew point: 37 °F

Location of VoldaLocation

Historic Weather in Volda — Graph

°F

Volda temperature yesterday

Maximum temperature yesterday: 57 °F (at 12:50 PM)
Minimum temperature yesterday: 36 °F (at 5:50 AM)
Average temperature yesterday: 49 °F

Past Weeks' High & Low Weather Summary

 TemperatureHumidityPressure
High57 °F (May 4, 12:50 PM)100% (Apr 21, 5:50 AM)30.45 "Hg (Apr 21, 5:50 AM)
Low28 °F (Apr 28, 5:50 AM)28% (May 3, 3:50 PM)29.24 "Hg (Apr 25, 3:50 PM)
Average43 °F66%29.81 "Hg
* Reported Apr 20 11:50 AM — May 5 11:50 AM, Volda, Weather by CustomWeather, © 2015

Note: Actual official high and low records may vary slightly from our data, if they occured in-between our weather recording intervals... More about our weather records

Advertising

Volda weather history for previous 24 hours

 ConditionsComfort  
Time TempWeatherWind HumidityBarometerVisibility
11:50 AM
Tue, May 5
57 °FSunny.7 mph48%29.59 "Hg10 mi
10:50 AM57 °FSunny.5 mph48%29.59 "Hg10 mi
9:50 AM55 °FSunny.2 mph51%29.62 "Hg10 mi
8:50 AM55 °FPassing clouds.1 mph51%29.62 "HgN/A
7:50 AM48 °FScattered clouds.2 mph71%29.62 "HgN/A
6:50 AM48 °FPartly sunny.3 mph71%29.62 "HgN/A
5:50 AM46 °FPassing clouds.3 mph82%29.62 "HgN/A
11:20 PM
Mon, May 4
48 °FScattered showers. Passing clouds.6 mph71%29.56 "HgN/A
10:50 PM46 °FScattered showers. Partly sunny.3 mph76%29.56 "HgN/A
9:50 PM45 °FLight rain. Partly sunny.2 mph87%29.53 "HgN/A
8:50 PM48 °FScattered showers. Partly sunny.6 mph66%29.53 "HgN/A
7:50 PM50 °FLight rain. Partly sunny.6 mph58%29.53 "HgN/A
7:20 PM52 °FDrizzle. Partly sunny.10 mph54%29.53 "HgN/A
6:50 PM52 °FPartly sunny.8 mph50%29.53 "HgN/A
5:50 PM54 °FPartly sunny.8 mph44%29.50 "HgN/A
4:50 PM55 °FPartly sunny.10 mph41%29.50 "HgN/A
3:50 PM55 °FPartly sunny.6 mph38%29.47 "HgN/A
3:20 PM55 °FPartly sunny.10 mph41%29.50 "HgN/A
2:50 PM55 °FPassing clouds.9 mph38%29.47 "HgN/A
1:50 PM55 °FSunny.12 mph38%29.47 "Hg10 mi
Weather by CustomWeather, © 2015

See weather overviewHow to use our weather pages